Theta_e
310 310 310 310 310 310 310 310 309 310 309 309 310 310 309 309 309 310 311 312 315 317 316 316 314 314 320 323 326 323 320 321 319 320 322 324 325 335 335 334 340 352 351 347 348
309 309 309 309 309 309 310 310 310 310 310 310 310 309 309 309 310 311 313 313 317 317 317 314 314 316 317 322 324 322 317 319 320 320 319 321 322 331 334 334 338 352 353 351 352
307 308 309 309 309 309 309 310 310 311 311 311 311 310 309 310 310 322 319 317 317 318 317 314 315 317 316 318 322 323 321 320 322 323 324 323 323 324 325 334 336 337 352 353 353
307 308 309 309 309 309 309 309 311 312 312 313 313 313 312 312 322 321 319 314 317 316 313 313 315 316 317 315 320 320 322 323 323 324 324 322 324 323 324 328 336 336 351 352 351
307 308 309 309 310 310 309 311 312 313 313 313 313 313 313 316 315 316 319 315 314 314 313 314 316 317 317 318 319 319 320 323 324 324 325 325 323 322 324 324 327 327 343 349 348
307 308 309 309 310 311 312 312 313 313 313 313 312 312 313 316 319 320 318 316 315 313 315 317 318 320 320 319 317 320 321 322 323 323 324 321 322 323 323 324 324 325 328 340 343
307 308 309 309 309 311 312 312 312 312 312 312 312 313 313 313 320 318 318 320 320 319 318 317 319 319 319 316 320 320 318 318 320 321 320 323 320 321 324 324 324 324 324 326 336
307 307 308 309 309 310 311 310 311 312 312 312 313 313 314 319 321 320 319 317 316 318 319 321 321 320 319 318 318 317 317 317 318 320 321 321 319 320 323 323 323 323 323 324 325
310 308 308 309 309 309 310 312 313 315 313 313 311 317 322 322 320 320 318 317 317 317 319 320 322 322 319 315 314 316 317 317 318 320 319 319 318 320 323 323 322 323 323 323 323
309 310 310 309 309 310 310 314 316 318 316 317 316 320 321 322 321 319 319 319 319 319 320 319 319 315 314 313 315 316 317 317 318 320 319 318 319 320 323 322 322 323 323 323 323
309 309 309 310 310 310 310 316 317 321 319 322 324 320 322 322 321 320 319 318 318 320 316 318 313 312 314 316 317 318 317 317 318 319 320 319 319 318 321 322 321 323 323 323 324
312 310 309 310 310 311 313 316 315 314 314 314 315 318 322 321 319 320 319 319 318 317 318 317 314 315 316 317 318 317 317 318 319 320 320 318 319 319 320 322 323 323 324 324 324
315 314 311 310 310 315 316 316 315 314 315 315 315 316 315 316 319 319 320 319 318 318 318 317 318 319 319 318 319 318 318 318 319 318 317 318 318 318 320 321 323 323 323 323 323
316 315 314 309 313 317 317 314 313 314 314 316 318 318 317 318 320 320 320 319 319 318 318 318 319 320 319 320 320 318 319 319 319 318 315 319 317 316 318 319 319 322 323 323 323
316 316 315 306 312 314 316 313 313 315 322 322 319 320 320 320 321 320 320 320 320 320 319 320 319 319 320 320 320 320 320 319 319 318 318 318 315 316 318 318 319 320 322 322 323
315 316 315 308 311 315 312 312 314 317 321 321 320 320 319 320 320 321 320 320 320 319 318 318 320 319 319 320 320 320 320 319 318 316 317 317 318 318 317 318 319 320 326 326 323
314 315 314 311 309 314 312 313 316 319 321 321 320 320 319 319 319 320 321 319 319 318 319 319 319 319 320 320 320 319 317 319 318 316 317 317 318 318 318 319 320 321 328 328 329
314 315 314 315 314 312 312 314 318 319 320 317 316 317 317 316 316 316 317 317 317 317 317 320 320 319 317 316 315 321 322 322 319 320 319 318 319 318 323 325 326 324 328 329 329
314 315 316 317 314 311 313 315 317 316 313 313 315 317 316 316 316 316 316 317 314 314 317 318 319 316 316 313 314 318 322 322 323 321 321 320 320 321 327 326 327 324 323 321 322
314 315 316 314 313 312 313 315 316 312 312 312 313 315 315 315 315 314 316 314 314 312 312 312 312 314 313 313 313 313 313 323 322 323 323 322 322 326 327 325 325 324 322 320 317
313 314 314 315 313 312 312 315 313 311 310 310 310 311 312 311 312 313 314 312 312 311 310 310 312 311 311 312 310 310 310 312 319 322 324 323 321 327 324 322 321 320 320 321 320
311 315 316 313 313 315 314 312 310 310 309 310 310 310 311 311 312 312 312 312 309 309 309 311 310 309 310 310 311 311 310 309 315 317 318 322 321 327 323 322 321 319 317 315 318
309 313 313 313 312 312 312 312 312 311 310 309 309 310 310 310 310 311 312 310 308 309 310 309 307 306 306 308 310 310 309 310 310 313 314 315 317 324 324 322 320 319 316 314 315
309 315 314 313 313 312 311 312 311 310 309 309 309 309 310 310 309 310 310 310 308 309 308 307 306 307 306 307 307 309 309 309 309 309 311 311 311 312 323 321 320 320 318 316 315
312 313 310 311 310 311 311 311 310 310 310 309 310 310 310 309 310 310 312 311 310 308 307 306 307 308 309 310 308 309 309 308 308 308 307 307 307 307 312 320 319 316 318 318 316
311 310 309 309 310 311 310 312 312 309 307 308 308 308 309 311 311 311 310 310 310 310 310 310 309 309 310 310 308 308 308 309 309 309 308 308 306 306 308 314 315 316 316 315 315
308 308 308 309 310 310 310 309 308 307 307 308 308 309 309 309 308 308 307 308 309 308 308 310 308 309 309 308 308 307 308 309 308 308 308 308 307 308 307 308 311 312 315 314 312
Wind_Speed
22 22 21 19 18 16 15 13 13 12 12 11 11 11 12 14 16 18 22 15 9 6 9 11 7 9 10 17 19 20 4 10 9 12 19 31 7 17 16 30 19 16 30 17 30
24 24 23 21 18 16 14 13 12 11 11 10 11 11 12 15 18 23 18 13 11 13 15 13 9 9 9 10 15 9 4 9 9 16 14 25 20 18 7 10 5 26 29 31 29
24 24 23 21 19 16 13 11 11 10 10 9 10 11 12 15 18 8 5 8 8 12 18 16 11 16 17 20 24 19 10 11 20 29 29 17 25 27 13 1 14 12 29 28 31
24 25 23 21 19 16 13 11 10 9 10 10 11 12 12 12 3 5 5 3 4 8 12 14 16 18 9 9 26 8 22 25 26 32 29 14 28 18 19 6 15 5 21 31 28
24 24 23 21 18 16 12 10 9 9 10 12 13 12 12 9 19 11 8 5 8 9 8 13 13 18 8 9 20 9 11 27 31 29 31 32 20 14 20 29 13 17 22 30 25
25 24 24 20 17 15 12 11 11 12 12 14 14 13 10 8 2 6 9 11 11 10 10 13 16 18 19 16 9 21 22 23 28 28 25 14 17 19 21 26 28 21 13 15 19
26 25 24 20 17 14 13 13 13 14 15 14 11 10 12 22 5 6 7 6 4 10 8 11 15 18 15 8 19 22 9 13 16 15 8 20 12 9 21 24 31 31 24 21 13
27 25 24 23 19 15 14 16 15 12 13 8 6 8 11 4 6 16 15 11 12 15 16 16 15 18 21 19 21 8 7 6 7 12 19 12 12 11 26 27 29 32 29 27 23
28 27 25 24 22 18 15 16 15 14 11 6 7 6 12 5 12 15 15 17 14 16 15 15 16 17 16 6 6 7 8 9 10 14 10 9 11 12 29 32 24 30 32 29 30
30 29 27 25 22 20 15 15 15 14 9 10 8 8 11 9 13 10 10 12 18 11 14 15 11 6 5 3 10 8 7 9 13 13 9 12 18 15 27 31 29 33 32 31 34
31 30 29 26 22 20 12 12 8 4 7 12 10 13 12 12 9 10 11 10 16 10 7 16 4 7 11 10 11 13 10 10 9 10 3 8 8 11 23 27 18 18 22 26 38
33 33 30 25 20 14 9 7 7 12 17 23 33 38 35 25 17 14 15 17 13 8 9 7 10 12 13 14 16 17 15 11 9 13 8 9 11 10 7 6 13 15 19 27 26
31 32 31 26 16 3 10 14 12 18 8 29 36 30 33 28 21 20 21 21 10 10 12 10 11 17 17 14 13 10 8 8 8 9 10 6 10 10 10 12 18 19 26 30 29
34 31 29 27 10 5 8 8 14 15 4 9 7 7 27 23 12 21 22 22 10 14 12 11 15 18 17 14 13 10 9 10 9 8 7 4 12 9 8 11 9 20 28 34 36
32 31 29 17 12 6 10 14 15 3 5 3 7 7 9 15 1 13 8 10 6 10 9 14 12 13 16 15 14 11 10 12 10 10 3 5 4 6 8 9 11 15 30 41 39
32 29 30 13 12 7 18 15 7 1 7 5 9 7 5 13 19 6 9 8 11 7 11 14 24 13 15 20 19 15 9 11 5 3 9 5 8 11 6 9 9 12 2 14 47
35 28 22 14 10 6 14 8 1 4 8 7 1 2 3 5 10 10 12 9 5 5 8 11 17 12 18 13 14 13 5 3 4 4 8 9 11 10 9 12 12 8 6 10 16
36 27 11 8 3 11 9 2 4 11 11 16 14 12 5 9 11 11 4 4 2 7 3 4 7 5 15 11 10 9 2 2 9 6 9 11 17 8 9 19 31 16 14 12 9
35 20 6 7 5 9 10 3 4 7 8 11 11 7 4 11 11 9 7 6 7 8 4 5 4 11 10 14 7 7 5 6 2 6 3 3 8 7 19 21 25 28 36 42 38
35 17 6 4 6 6 2 7 11 10 10 9 5 8 5 10 8 9 5 7 5 13 8 8 6 7 12 12 7 11 11 5 5 4 7 3 4 2 10 14 15 18 26 39 45
21 11 7 18 17 5 4 4 5 13 15 7 6 6 5 7 8 5 6 9 10 8 8 6 2 6 8 7 15 13 7 5 3 6 3 2 5 5 7 7 13 16 28 33 36
15 5 17 18 4 4 2 5 12 9 17 8 2 3 4 9 5 3 3 4 4 7 4 3 2 3 11 10 15 13 13 7 2 6 3 1 5 5 8 8 14 15 22 30 30
26 8 8 18 4 4 11 10 8 11 9 6 7 11 13 2 2 7 6 10 9 2 3 4 3 5 7 6 4 5 13 9 3 2 3 2 6 6 10 10 15 17 21 22 27
9 4 12 11 10 8 7 5 8 9 7 2 3 6 6 5 6 3 7 2 8 10 9 6 2 3 4 9 13 14 16 15 4 1 5 5 11 11 5 6 6 2 8 11 11
4 5 10 4 9 12 5 8 11 3 8 11 6 11 6 5 6 5 7 8 9 4 4 4 2 6 9 15 12 16 16 15 12 12 8 8 10 11 4 7 11 20 21 24 21
7 6 9 21 14 11 5 5 10 9 9 6 6 13 11 3 4 6 8 6 3 2 2 2 3 5 5 15 13 13 16 13 13 13 11 14 12 12 18 13 14 17 16 17 22
10 11 8 9 9 7 4 3 4 7 7 8 12 6 7 10 13 14 16 14 10 5 3 8 5 2 5 8 12 9 7 12 11 11 7 10 8 7 10 12 10 16 19 23 22
Wind_Direction
350 347 345 341 336 332 327 325 324 323 319 314 306 303 300 296 291 282 268 263 243 254 269 266 256 244 227 259 245 251 243 250 255 269 280 290 317 296 271 296 337 114 154 150 147
352 350 348 344 340 336 332 328 325 324 321 317 310 306 304 301 299 282 286 252 232 257 276 271 244 241 235 251 249 225 227 244 244 264 278 291 307 292 246 319 302 114 122 135 152
353 353 350 347 344 340 334 328 326 329 329 324 317 312 310 310 317 305 16 234 247 261 268 255 230 240 227 247 248 247 242 252 260 266 280 297 314 319 299 196 281 296 142 150 159
352 354 353 351 349 347 340 332 327 327 327 317 315 313 307 308 311 324 312 356 236 267 248 216 231 262 229 236 249 238 247 250 259 266 279 288 299 311 315 295 145 159 163 154 160
352 353 354 352 350 351 346 334 324 321 315 311 308 303 299 291 265 275 256 239 252 257 239 201 229 251 227 244 253 256 257 261 264 258 260 276 284 289 298 301 302 302 174 161 165
351 351 353 350 347 347 342 332 320 315 309 305 301 290 276 261 274 258 274 259 260 247 225 227 246 258 265 250 244 259 263 266 273 269 267 276 281 286 302 294 300 311 304 174 187
349 349 348 346 341 334 331 327 318 310 305 302 295 274 252 252 251 280 281 272 265 238 248 240 250 267 284 300 275 280 280 281 278 283 275 278 283 282 287 289 290 292 292 294 201
348 346 344 342 335 328 325 321 318 318 309 295 291 273 257 242 269 225 257 253 248 256 255 255 255 256 265 278 294 303 295 266 279 266 272 260 261 261 270 277 264 275 280 280 278
347 343 340 337 333 325 321 320 311 308 307 261 289 271 267 302 218 235 229 240 250 247 256 252 250 264 274 253 301 284 256 263 275 249 252 241 254 244 245 255 258 260 260 265 268
346 342 338 334 329 321 319 316 308 299 276 275 223 278 247 256 236 225 213 241 247 226 247 241 248 230 263 192 228 241 252 247 248 258 257 245 247 253 237 233 239 249 257 256 253
346 341 337 334 328 317 320 326 339 322 257 232 246 225 273 273 159 198 224 246 249 225 226 228 211 240 233 224 244 265 265 273 280 279 277 273 290 260 246 228 213 237 272 267 238
344 340 336 334 327 312 311 306 351 315 294 275 263 253 254 261 265 242 234 236 223 236 233 252 219 237 239 233 230 241 255 272 281 284 281 296 291 286 297 264 220 243 276 283 263
340 337 336 333 328 303 303 308 319 321 282 288 254 244 240 241 238 244 245 220 218 224 246 226 244 221 236 247 251 251 238 252 254 287 296 328 292 294 287 282 283 272 267 275 283
337 335 335 330 328 281 321 346 325 324 302 267 218 229 225 217 236 241 244 196 216 241 244 238 246 255 259 240 232 234 245 271 270 248 247 209 282 289 278 268 269 260 266 271 273
333 333 326 316 313 298 354 341 322 335 319 164 130 164 189 163 262 199 139 170 252 279 277 268 273 275 276 272 275 253 245 249 245 264 293 283 261 262 277 282 263 246 247 254 262
332 332 320 308 280 350 344 318 317 308 250 246 137 171 227 193 229 145 157 204 242 268 277 273 280 268 279 288 288 297 280 248 253 232 262 233 242 263 257 256 277 285 346 303 246
336 331 315 299 244 339 330 319 313 226 313 357 14 150 199 240 241 206 184 196 194 297 270 271 256 272 323 309 309 288 318 287 302 267 252 215 248 260 263 272 259 265 108 94 59
337 337 315 13 112 352 319 327 237 263 304 358 359 355 358 336 298 309 352 328 69 33 318 325 293 15 358 17 335 314 21 272 236 229 252 233 245 253 9 355 13 235 150 96 90
339 347 1 335 356 335 312 259 246 8 359 349 329 304 335 2 360 18 359 29 43 40 27 342 267 335 353 360 355 324 327 300 12 318 288 229 318 305 27 19 18 30 36 29 20
340 353 28 329 310 311 267 253 299 37 354 348 345 16 345 -0 354 4 340 39 79 51 36 15 317 321 351 338 326 10 328 357 353 325 271 260 249 281 29 35 26 14 18 17 18
354 333 344 338 326 275 233 289 30 24 17 6 360 327 355 352 355 348 333 56 28 34 38 32 346 338 2 7 329 332 330 319 199 217 241 332 284 127 99 69 71 33 15 13 7
3 311 336 334 310 296 42 41 351 29 27 350 358 46 358 6 5 336 296 14 73 40 11 49 291 302 305 306 286 271 279 275 221 281 300 161 264 55 84 52 47 45 43 16 355
336 281 32 13 38 1 11 342 5 31 23 5 340 8 348 339 348 348 322 137 150 91 63 3 348 340 325 307 7 28 337 322 322 21 276 245 270 193 112 79 58 31 12 25 2
333 317 350 346 42 18 356 334 346 336 288 329 295 306 315 322 293 264 273 32 94 104 98 77 25 222 244 280 289 304 318 315 316 304 276 272 311 318 77 101 118 250 231 263 252
320 338 14 324 342 321 339 306 293 0 354 4 343 307 244 253 293 309 356 19 38 139 94 102 250 293 301 311 311 317 312 316 325 316 297 283 292 301 290 200 227 259 243 215 233
330 347 324 300 317 303 299 354 23 26 15 319 317 313 324 8 26 327 16 15 355 164 92 59 260 297 310 306 303 293 300 297 285 281 292 311 267 274 284 257 219 242 224 225 217
336 325 320 280 293 292 304 56 345 18 308 20 353 341 340 11 343 331 314 300 284 289 248 172 179 206 261 280 302 301 287 303 320 309 291 305 288 330 336 319 278 233 219 231 223